Weather reports worldwide

Advertisment
St-Etienne Boutheon, France (7475): temperature & dewpoint: 20.05.2019 02:00:00 - 26.05.2019 02:00:00 (CEST)St-Etienne Boutheon, France (7475): temperature 5cm: 20.05.2019 02:00:00 - 26.05.2019 02:00:00 (CEST)St-Etienne Boutheon, France (7475): temperature -20cm & temperature -100cm: 20.05.2019 02:00:00 - 26.05.2019 02:00:00 (CEST)St-Etienne Boutheon, France (7475): wind speed & gusts: 20.05.2019 02:00:00 - 26.05.2019 02:00:00 (CEST)St-Etienne Boutheon, France (7475): wind direction: 20.05.2019 02:00:00 - 26.05.2019 02:00:00 (CEST)St-Etienne Boutheon, France (7475): reduced air pressure: 20.05.2019 02:00:00 - 26.05.2019 02:00:00 (CEST)St-Etienne Boutheon, France (7475): visibility: 20.05.2019 02:00:00 - 26.05.2019 02:00:00 (CEST)St-Etienne Boutheon, France (7475): sunshine duration: 20.05.2019 02:00:00 - 26.05.2019 02:00:00 (CEST)St-Etienne Boutheon, France (7475): precipitation: 20.05.2019 02:00:00 - 26.05.2019 02:00:00 (CEST)
Date & Time tt [°C] td [°C] tt 5cm [°C] tt -20cm [°C] tt -100cm [°C] ff [km/h] ff [kn] fx [km/h] fx [kn] dd ppp [hPa] vv [km] sd [min] rr [mm]
26.05.2019 02:00:00 - - - - - - - - - - - - - -
26.05.2019 01:00:00 14,9 9,5 13,4 19,0 13,4 7 4 13 7 N 1018,5 59 0 0,0
26.05.2019 00:00:00 15,0 9,8 12,9 19,3 13,4 8 4 16 9 N 1018,7 53 0 0,0
25.05.2019 23:00:00 15,7 9,6 14,4 19,6 13,4 10 5 29 16 N 1018,4 52 0 0,0
25.05.2019 22:00:00 16,6 9,5 15,6 19,9 13,4 11 6 23 13 NW 1017,6 58 0 0,0
25.05.2019 21:00:00 17,0 11,7 16,3 20,0 13,4 8 4 16 9 NW 1016,9 55 0 0,0
25.05.2019 20:00:00 17,1 11,1 16,8 20,1 13,4 9 5 29 16 WNW 1016,6 59 0 0,0
25.05.2019 19:00:00 18,6 11,4 19,3 20,1 13,4 19 10 39 21 NW 1016,3 54 26 0,0
25.05.2019 18:00:00 19,4 10,7 19,9 19,9 13,3 17 9 34 18 NNW 1015,5 48 2 0,0
25.05.2019 17:00:00 19,7 11,5 21,7 19,5 13,3 21 11 40 22 NW 1015,5 47 39 0,0
25.05.2019 16:00:00 20,3 10,7 22,2 19,1 13,3 16 9 36 19 N 1015,3 42 24 0,0
25.05.2019 15:00:00 21,5 11,5 23,0 18,5 13,3 19 10 42 23 NNW 1015,4 19 37 0,0
25.05.2019 14:00:00 21,2 10,7 24,8 17,9 13,3 21 12 38 21 NNW 1015,8 42 44 0,0
25.05.2019 13:00:00 21,2 10,7 27,2 17,3 13,3 17 9 37 20 NNW 1016,0 20 60 0,0
25.05.2019 12:00:00 19,8 11,0 25,2 16,8 13,3 14 8 27 15 NNW 1016,5 29 60 0,0
25.05.2019 11:00:00 18,2 11,3 22,9 16,5 13,3 14 7 26 14 N 1017,0 28 60 0,0
25.05.2019 10:00:00 17,0 11,7 20,9 16,5 13,3 16 9 34 18 NW 1017,1 20 57 0,0
25.05.2019 09:00:00 15,7 11,1 19,9 16,6 13,3 14 7 26 14 NNW 1017,1 20 60 0,0
25.05.2019 08:00:00 14,5 11,5 9,5 16,9 13,2 6 3 14 7 N 1016,8 19 53 0,0
25.05.2019 07:00:00 11,1 9,5 6,1 17,2 13,2 0 0 8 4 N 1017,2 20 3 0,0
25.05.2019 06:00:00 11,5 9,4 6,7 17,5 13,2 2 1 8 4 N 1016,7 27 0 0,0
25.05.2019 05:00:00 12,5 9,9 7,8 17,8 13,2 4 2 7 4 NW 1016,4 36 0 0,0
25.05.2019 04:00:00 12,7 9,1 9,6 18,0 13,2 2 1 15 8 NNW 1016,2 39 0 0,0
25.05.2019 03:00:00 14,8 9,6 13,5 18,2 13,2 7 4 16 9 NNW 1015,8 52 0 0,0
25.05.2019 02:00:00 15,4 8,4 13,5 18,5 13,1 4 2 11 6 NNW 1015,8 60 0 0,0
25.05.2019 01:00:00 16,0 8,0 14,0 18,8 13,1 4 2 10 6 N 1015,8 60 0 0,0
25.05.2019 00:00:00 16,5 8,7 14,8 19,0 13,1 5 3 18 10 N 1015,5 60 0 0,0
24.05.2019 23:00:00 17,3 8,7 15,7 19,3 13,1 10 5 22 12 NNW 1015,1 60 0 0,0
24.05.2019 22:00:00 17,7 10,1 15,6 19,5 13,1 6 3 27 15 N 1014,5 60 0 0,0
24.05.2019 21:00:00 19,5 9,4 18,4 19,7 13,1 14 8 29 16 N 1013,5 60 11 0,0
24.05.2019 20:00:00 20,7 9,0 20,8 19,7 13,1 16 9 37 20 N 1012,7 60 51 0,0
24.05.2019 19:00:00 22,4 6,2 24,3 19,6 13,1 16 9 32 17 NNW 1012,1 48 57 0,0
24.05.2019 18:00:00 22,4 6,6 24,6 19,3 13,1 18 10 35 19 N 1012,2 52 44 0,0
24.05.2019 17:00:00 22,7 9,1 23,0 18,9 13,0 16 9 37 20 N 1012,4 47 26 0,0
24.05.2019 16:00:00 21,7 8,6 23,4 18,3 13,1 17 9 34 18 N 1013,0 59 50 0,0
24.05.2019 15:00:00 22,6 7,6 23,5 17,5 13,0 13 7 26 14 N 1013,2 35 43 0,0
24.05.2019 14:00:00 23,0 8,7 26,4 16,8 13,0 8 4 28 15 WNW 1013,5 43 58 0,0
24.05.2019 13:00:00 21,7 9,9 28,0 16,3 13,0 13 7 28 15 NNW 1014,1 56 60 0,0
24.05.2019 12:00:00 20,8 9,1 22,5 15,9 13,0 11 6 22 12 N 1014,7 57 27 0,0
24.05.2019 11:00:00 18,6 8,8 21,9 15,6 13,0 9 5 17 9 NNW 1015,4 45 25 0,0
24.05.2019 10:00:00 17,3 9,2 19,5 15,5 13,0 3 2 9 5 ENE 1015,7 29 2 0,0
24.05.2019 09:00:00 17,4 9,0 17,7 15,6 13,0 3 2 8 5 SW 1015,7 19 56 0,0
24.05.2019 08:00:00 13,8 7,8 9,8 15,8 13,0 6 3 11 6 SSE 1015,9 47 60 0,0
24.05.2019 07:00:00 9,5 7,1 6,1 16,1 13,0 2 1 8 5 ESE 1016,5 49 10 0,0
24.05.2019 06:00:00 8,0 6,0 5,7 16,4 12,9 6 4 8 4 S 1016,6 46 0 0,0
24.05.2019 05:00:00 9,1 6,5 6,0 16,8 12,9 3 2 6 3 S 1016,3 54 0 0,0
24.05.2019 04:00:00 9,3 6,6 6,1 17,1 12,9 6 3 8 5 S 1016,4 53 0 0,0
24.05.2019 03:00:00 9,8 7,2 6,7 17,5 12,9 4 2 7 4 ESE 1016,6 51 0 0,0
24.05.2019 02:00:00 11,3 7,4 7,5 17,9 12,9 5 3 7 4 S 1016,5 60 0 0,0
24.05.2019 01:00:00 11,5 8,0 8,2 18,2 12,9 5 3 8 4 SSE 1016,9 60 0 0,0
24.05.2019 00:00:00 12,6 7,9 9,0 18,6 12,9 6 4 8 4 S 1016,6 60 0 0,0
23.05.2019 23:00:00 14,2 8,2 10,6 19,0 12,9 2 1 7 4 SW 1016,4 60 0 0,0
23.05.2019 22:00:00 16,0 8,2 12,7 19,3 12,9 5 3 19 10 NNE 1015,7 60 0 0,0
23.05.2019 21:00:00 18,3 7,7 15,4 19,5 12,9 9 5 21 11 N 1015,0 60 9 0,0
23.05.2019 20:00:00 21,2 5,1 19,9 19,5 12,9 8 4 16 9 NNW 1014,1 60 18 0,0
23.05.2019 19:00:00 22,9 2,4 25,2 19,3 12,9 7 4 18 10 N 1013,8 57 60 0,0
23.05.2019 18:00:00 23,3 4,7 24,3 18,9 12,9 6 3 20 11 NNW 1013,9 59 54 0,0
23.05.2019 17:00:00 23,3 2,2 28,0 18,2 12,8 8 4 18 10 NNW 1014,3 49 60 0,0
23.05.2019 16:00:00 23,1 5,9 26,4 17,4 12,8 6 4 19 10 SSW 1014,8 60 60 0,0
23.05.2019 15:00:00 21,5 5,4 26,5 16,5 12,8 7 4 18 10 ENE 1015,7 50 60 0,0
23.05.2019 14:00:00 20,6 5,4 25,7 15,6 12,8 9 5 22 12 NW 1016,5 59 60 0,0
23.05.2019 13:00:00 19,8 6,5 25,9 14,8 12,8 7 4 21 11 NNW 1017,1 20 60 0,0
23.05.2019 12:00:00 18,6 5,1 24,9 14,2 12,8 9 5 18 10 NNE 1017,7 19 60 0,0
23.05.2019 11:00:00 17,6 5,5 23,0 13,7 12,8 4 2 13 7 WNW 1018,1 20 60 0,0
23.05.2019 10:00:00 15,7 6,9 20,6 13,6 12,8 5 3 10 6 NW 1018,6 44 60 0,0
23.05.2019 09:00:00 13,5 7,7 15,1 13,7 12,8 3 2 9 5 WNW 1019,1 20 60 0,0
23.05.2019 08:00:00 9,8 7,6 5,4 13,9 12,8 2 1 4 2 N 1019,5 20 60 0,0
23.05.2019 07:00:00 5,4 4,8 0,4 14,3 12,8 0 0 4 2 N 1020,2 16 17 0,0
23.05.2019 06:00:00 4,0 3,4 0,5 14,7 12,8 3 1 7 4 SSE 1020,5 17 0 0,0
23.05.2019 05:00:00 4,6 4,0 0,3 15,0 12,8 2 1 5 3 SE 1020,4 14 0 0,0
23.05.2019 04:00:00 5,9 5,2 1,2 15,4 12,7 3 2 4 2 S 1020,5 16 0 0,0
23.05.2019 03:00:00 6,2 5,2 1,9 15,8 12,7 0 0 5 3 N 1020,3 20 0 0,0
23.05.2019 02:00:00 6,8 5,9 3,1 16,2 12,8 0 0 5 3 N 1020,5 23 0 0,0
23.05.2019 01:00:00 8,0 6,8 3,7 16,6 12,8 2 1 6 3 SE 1020,3 37 0 0,0
23.05.2019 00:00:00 10,1 6,8 5,4 17,0 12,7 3 1 7 4 SE 1020,1 39 0 0,0
22.05.2019 23:00:00 11,5 7,0 7,6 17,3 12,7 4 2 8 5 N 1019,8 43 0 0,0
22.05.2019 22:00:00 14,2 7,0 8,7 17,5 12,7 5 3 19 10 ENE 1019,1 60 0 0,0
22.05.2019 21:00:00 17,2 6,7 15,1 17,7 12,7 10 6 26 14 N 1018,2 60 38 0,0
22.05.2019 20:00:00 19,3 6,4 19,3 17,7 12,7 17 9 33 18 N 1017,6 52 60 0,0
22.05.2019 19:00:00 20,4 6,7 23,0 17,5 12,7 19 10 34 18 N 1017,2 60 60 0,0
22.05.2019 18:00:00 20,8 7,1 20,1 17,2 12,7 18 10 37 20 N 1017,4 20 47 0,0
22.05.2019 17:00:00 19,5 8,8 20,3 16,8 12,7 21 11 40 22 NE 1017,7 54 29 0,0
22.05.2019 16:00:00 21,3 8,5 20,8 16,2 12,7 17 9 32 18 N 1017,5 60 33 0,0
22.05.2019 15:00:00 19,5 8,2 21,0 15,6 12,7 16 9 34 18 N 1017,9 60 35 0,0
22.05.2019 14:00:00 18,6 8,8 20,6 15,0 12,7 14 8 29 16 N 1018,3 49 23 0,0
22.05.2019 13:00:00 18,8 9,3 21,0 14,4 12,7 11 6 24 13 NNW 1018,4 49 21 0,0
22.05.2019 12:00:00 18,0 9,3 21,0 13,8 12,7 7 4 23 12 NW 1018,8 35 49 0,0
22.05.2019 11:00:00 16,4 9,8 21,8 13,4 12,7 8 5 18 10 NNW 1019,2 20 58 0,0
22.05.2019 10:00:00 14,3 9,5 18,9 13,2 12,7 10 5 21 12 NNW 1019,6 17 60 0,0
22.05.2019 09:00:00 12,5 9,1 15,7 13,3 12,7 8 5 16 8 NNW 1020,0 18 60 0,0
22.05.2019 08:00:00 11,6 9,3 6,8 13,5 12,7 0 0 6 4 N 1019,9 12 60 0,0
22.05.2019 07:00:00 6,2 5,9 1,5 13,8 12,6 2 1 6 3 NE 1020,6 5 29 0,0
22.05.2019 06:00:00 5,7 5,3 1,0 14,1 12,7 2 1 6 4 S 1020,2 4,5 0 0,0
22.05.2019 05:00:00 5,2 4,5 2,1 14,5 12,7 4 2 7 4 SSE 1020,1 1,1 0 0,0
22.05.2019 04:00:00 6,5 5,8 2,8 14,7 12,6 2 1 8 5 WSW 1019,8 8 0 0,0
22.05.2019 03:00:00 7,7 6,8 4,5 15,1 12,6 5 3 8 5 S 1019,5 12 0 0,0
22.05.2019 02:00:00 9,7 6,8 5,9 15,4 12,6 4 2 13 7 ENE 1019,1 28 0 0,0
22.05.2019 01:00:00 10,7 8,3 6,4 15,7 12,6 6 3 13 7 ESE 1019,0 33 0 0,0
22.05.2019 00:00:00 11,1 7,8 8,5 16,0 12,6 8 5 14 7 NNE 1018,7 35 0 0,0
21.05.2019 23:00:00 13,2 8,3 11,5 16,2 12,6 8 4 15 8 NNW 1018,3 46 0 0,0
21.05.2019 22:00:00 15,0 8,5 13,4 16,4 12,6 10 5 26 14 N 1017,3 51 0 0,0
21.05.2019 21:00:00 16,5 8,5 15,7 16,5 12,6 14 8 33 18 N 1016,6 59 48 0,0
21.05.2019 20:00:00 17,4 8,8 18,4 16,5 12,6 22 12 37 20 N 1016,0 60 60 0,0
21.05.2019 19:00:00 18,4 9,2 19,1 16,5 12,6 23 12 41 22 N 1015,4 42 58 0,0
21.05.2019 18:00:00 17,6 8,2 18,8 16,4 12,6 23 12 39 21 N 1015,6 41 28 0,0
21.05.2019 17:00:00 17,4 9,3 17,2 16,2 12,6 24 13 41 22 N 1015,6 43 7 0,0
21.05.2019 16:00:00 17,2 9,4 17,2 15,6 12,6 19 10 41 22 N 1015,6 32 19 0,0
21.05.2019 15:00:00 18,6 9,6 23,1 15,0 12,6 23 13 41 22 N 1015,3 19 58 0,0
21.05.2019 14:00:00 18,3 9,9 21,4 14,4 12,6 24 13 40 22 N 1015,2 33 51 0,0
21.05.2019 13:00:00 17,5 9,9 18,6 13,9 12,6 16 9 36 19 N 1015,4 17 33 0,0
21.05.2019 12:00:00 16,5 11,6 17,1 13,7 12,6 15 8 29 15 NNW 1015,6 15 20 0,0
21.05.2019 11:00:00 13,8 10,6 13,3 13,6 12,6 16 9 27 15 N 1016,1 12 0 0,0
21.05.2019 10:00:00 12,8 10,9 12,5 13,6 12,6 13 7 24 13 N 1016,1 8 0 0,0
21.05.2019 09:00:00 12,5 10,7 12,3 13,6 12,6 6 3 11 6 N 1015,6 8 0 0,0
21.05.2019 08:00:00 12,2 10,8 11,4 13,7 12,6 0 0 4 2 N 1015,2 8 0 0,2
21.05.2019 07:00:00 11,5 10,4 10,9 13,7 12,6 0 0 3 2 N 1015,2 7 0 0,0
21.05.2019 06:00:00 11,6 10,3 10,8 13,8 12,6 2 1 5 3 WSW 1014,8 9 0 0,0
21.05.2019 05:00:00 11,7 10,4 10,9 13,9 12,6 3 2 5 3 SE 1014,7 9 0 0,0
21.05.2019 04:00:00 11,8 10,4 11,4 14,0 12,6 4 2 12 6 NE 1014,8 10 0 0,0
21.05.2019 03:00:00 12,0 10,2 11,7 14,1 12,6 5 3 11 6 NNW 1014,8 13 0 0,0
21.05.2019 02:00:00 12,0 10,2 11,6 14,2 12,6 6 4 10 5 NW 1014,8 13 0 0,0
21.05.2019 01:00:00 12,0 10,4 11,6 14,3 12,6 8 4 12 6 N 1014,9 11 0 0,0
21.05.2019 00:00:00 12,7 9,9 12,1 14,5 12,6 6 3 13 7 N 1014,5 16 0 0,0
20.05.2019 23:00:00 13,1 9,5 12,5 14,6 12,6 6 3 16 9 NNW 1014,2 18 0 0,0
20.05.2019 22:00:00 13,5 10,3 12,8 14,7 12,6 9 5 16 8 N 1013,7 15 0 0,0
20.05.2019 21:00:00 13,8 9,6 13,2 14,6 12,5 7 4 18 10 N 1012,9 20 0 0,0
20.05.2019 20:00:00 14,2 9,4 14,7 14,6 12,6 10 5 27 15 NNW 1012,4 20 37 0,0
20.05.2019 19:00:00 14,6 9,6 14,0 14,5 12,6 10 5 36 19 NNW 1012,0 36 0 0,0
20.05.2019 18:00:00 13,9 10,3 12,3 14,4 12,6 14 8 34 19 NW 1011,8 16 4 0,2
20.05.2019 17:00:00 15,2 9,5 15,6 14,2 12,6 15 8 34 19 NW 1011,5 46 0 0,0
20.05.2019 16:00:00 15,8 9,2 15,1 13,9 12,5 16 8 30 16 NW 1011,2 20 0 0,0
20.05.2019 15:00:00 14,8 8,9 16,0 13,7 12,5 13 7 30 16 N 1011,4 37 1 0,0
20.05.2019 14:00:00 15,4 9,3 15,9 13,5 12,6 16 8 33 18 NNW 1011,1 20 0 0,0
20.05.2019 13:00:00 14,7 9,1 15,0 13,4 12,5 17 9 38 20 NNW 1010,9 23 0 0,0
20.05.2019 12:00:00 13,6 8,8 12,3 13,4 12,5 15 8 34 18 NNW 1010,7 25 0 0,0
20.05.2019 11:00:00 12,7 8,8 11,7 13,4 12,5 17 9 29 16 N 1010,8 19 0 0,0
20.05.2019 10:00:00 12,4 9,2 11,8 13,4 12,5 16 8 26 14 N 1010,4 17 0 0,0
20.05.2019 09:00:00 11,9 9,6 10,8 13,4 12,5 5 3 10 5 N 1010,2 15 0 0,0
20.05.2019 08:00:00 11,5 9,2 10,5 13,5 12,5 7 4 19 10 N 1009,8 15 0 0,0
20.05.2019 07:00:00 11,1 9,5 10,4 13,6 12,5 6 4 14 7 N 1009,4 10 0 0,0
20.05.2019 06:00:00 10,9 9,7 10,4 13,7 12,5 3 1 13 7 N 1009,0 9 0 0,0
20.05.2019 05:00:00 11,0 9,9 10,3 13,8 12,5 8 4 15 8 NNE 1008,6 9 0 0,0
20.05.2019 04:00:00 10,7 9,9 10,1 14,0 12,5 3 2 7 4 NNE 1008,7 6 0 0,2
20.05.2019 03:00:00 10,9 10,1 10,4 14,1 12,5 4 2 19 10 N 1008,9 5 0 2,8
20.05.2019 02:00:00 11,7 9,6 10,9 14,2 12,5 13 7 24 13 N 1009,0 4,4 0 0,4

tt = temperature
td = dewpoint
tt 5cm = temperature 5cm
tt -20cm = temperature -20cm
tt -100cm = temperature -100cm
ff = wind speed
fx = gusts
dd = wind direction
ppp = reduced air pressure
vv = visibility
sd = sunshine duration
rr = precipitation

Next stations